Date String (YYYY-MM-DD hh:mm:ss) UTC,Instrument flags,absolute air pressure of the measurement (hPa),sample flow rate (lpm),inlet stack bypass flow (lpm),air temperature of the measurement (°C),ambient temperature measured by the external sensor (°C),aerosol sample conditioner tube jacket temperature (°C),OPC LED temperature (°C),internal box temperature (°C),relative humidity of the measurement (%),span deviation,mass concentration of particles derived from Lorenz-Mie calculation of OPC scattering (μg/m³),mass concentration of particles derived from Lorenz-Mie calculation of OPC scattering (μg/m³),mass concentration of particles derived from Lorenz-Mie calculation of OPC scattering (μg/m³)
DateTimeUTC,F1_M11,P_M11,Q1_M11,Q2_M11,T1_M11,T2_M11,T3_M11,T4_M11,T5_M11,U1_M11,ZSPAN_M11,X0_M11,X2_M11,X1_M11
2023-09-04 10:00:00,SystemResetWarning,0826.2,4.99,000.00,028.5,027.4,000.0,036.8,030.1,30.7,0000.0,0003.79,0001.94,0001.58
2023-09-04 10:01:00,SystemResetWarning,0826.2,5.00,000.00,028.5,027.4,000.0,036.8,030.1,30.6,0000.0,0003.77,0001.93,0001.58
2023-09-04 10:02:00,SystemResetWarning,0826.2,5.01,000.00,028.5,027.5,000.0,036.9,030.2,30.4,0000.0,0003.96,0001.99,0001.58
2023-09-04 10:03:00,SystemResetWarning,0826.2,5.00,000.00,028.6,027.4,000.0,036.9,030.2,30.7,0000.0,0004.00,0001.98,0001.59
2023-09-04 10:04:00,SystemResetWarning,0826.2,4.98,000.00,028.5,026.1,000.0,036.8,029.8,30.3,0000.0,0004.06,0002.00,0001.60
2023-09-04 10:05:00,SystemResetWarning,0826.2,5.01,000.00,028.4,024.8,000.0,036.7,029.5,30.4,0000.0,0004.10,0002.03,0001.63
2023-09-04 10:06:00,SystemResetWarning,0826.1,5.01,000.00,028.3,024.4,000.0,036.7,029.3,30.5,0000.0,0004.10,0002.05,0001.65
2023-09-04 10:07:00,SystemResetWarning,0826.0,5.01,000.00,028.2,024.6,000.0,036.7,029.2,30.6,0000.0,0004.02,0002.05,0001.65
2023-09-04 10:08:00,SystemResetWarning,0826.0,5.00,000.00,028.1,025.0,000.0,036.7,029.3,30.5,0000.0,0003.54,0002.03,0001.64
2023-09-04 10:09:00,SystemResetWarning,0826.0,5.00,000.00,028.1,025.3,000.0,036.7,029.4,30.4,0000.0,0003.49,0002.01,0001.63
2023-09-04 10:10:00,SystemResetWarning,0826.0,4.99,000.00,028.1,025.7,000.0,036.7,029.5,30.4,0000.0,0002.79,0001.97,0001.63
2023-09-04 10:11:00,SystemResetWarning,0826.1,5.00,000.00,028.1,026.0,000.0,036.7,029.5,30.3,0000.0,0002.81,0001.98,0001.62
2023-09-04 10:12:00,SystemResetWarning,0826.0,5.01,000.00,028.1,026.2,000.0,036.6,029.6,30.4,0000.0,0002.86,0002.00,0001.62
2023-09-04 10:13:00,SystemResetWarning,0825.9,5.01,000.00,028.1,026.4,000.0,036.6,029.6,30.2,0000.0,0002.64,0001.94,0001.62
2023-09-04 10:14:00,SystemResetWarning,0825.9,5.00,000.00,028.1,026.5,000.0,036.6,029.7,30.0,0000.0,0002.56,0001.95,0001.64
2023-09-04 10:15:00,SystemResetWarning,0825.9,5.00,000.00,028.2,026.7,000.0,036.6,029.7,28.9,0000.0,0002.66,0002.00,0001.67
2023-09-04 10:16:00,SystemResetWarning,0825.9,5.00,000.00,028.2,026.8,000.0,036.6,029.7,29.4,0000.0,0002.77,0002.03,0001.69
2023-09-04 10:17:00,SystemResetWarning,0825.9,5.00,000.00,028.2,026.8,000.0,036.6,029.8,28.9,0000.0,0002.93,0002.09,0001.70
2023-09-04 10:18:00,SystemResetWarning,0825.9,5.00,000.00,028.2,026.9,000.0,036.7,029.8,29.0,0000.0,0002.98,0002.13,0001.73
2023-09-04 10:19:00,SystemResetWarning,0825.9,5.00,000.00,028.3,027.0,000.0,036.7,029.8,28.9,0000.0,0002.94,0002.14,0001.76
2023-09-04 10:20:00,SystemResetWarning,0825.9,5.00,000.00,028.3,027.0,000.0,036.7,029.9,28.9,0000.0,0002.98,0002.16,0001.78
2023-09-04 10:21:00,SystemResetWarning,0825.9,5.00,000.00,028.3,027.1,000.0,036.7,029.9,28.8,0000.0,0003.12,0002.20,0001.80
2023-09-04 10:22:00,SystemResetWarning,0825.9,5.00,000.00,028.3,027.1,000.0,036.7,029.9,28.6,0000.0,0003.18,0002.23,0001.82
2023-09-04 10:23:00,SystemResetWarning,0825.9,5.00,000.00,028.4,027.2,000.0,036.7,030.0,28.8,0000.0,0003.21,0002.21,0001.81
2023-09-04 10:24:00,SystemResetWarning,0825.9,5.00,000.00,028.4,027.2,000.0,036.7,030.0,28.5,0000.0,0003.25,0002.21,0001.80
2023-09-04 10:25:00,SystemResetWarning,0825.9,5.00,000.00,028.4,027.3,000.0,036.7,030.0,28.5,0000.0,0003.38,0002.23,0001.79
2023-09-04 10:26:00,SystemResetWarning,0825.9,5.00,000.00,028.4,027.3,000.0,036.8,030.0,28.7,0000.0,0003.54,0002.23,0001.76
2023-09-04 10:27:00,SystemResetWarning,0825.9,5.00,000.00,028.4,027.3,000.0,036.8,030.1,28.2,0000.0,0003.50,0002.19,0001.74
2023-09-04 10:28:00,SystemResetWarning,0825.9,5.00,000.00,028.5,027.3,000.0,036.8,030.1,28.2,0000.0,0003.48,0002.14,0001.72
2023-09-04 10:29:00,SystemResetWarning,0825.9,5.00,000.00,028.5,027.4,000.0,036.8,030.1,28.5,0000.0,0004.42,0002.13,0001.70
2023-09-04 10:30:00,SystemResetWarning,0825.9,5.00,000.00,028.5,027.4,000.0,036.8,030.1,28.8,0000.0,0004.45,0002.13,0001.68
2023-09-04 10:31:00,SystemResetWarning,0825.9,5.00,000.00,028.5,027.4,000.0,036.9,030.1,29.5,0000.0,0004.56,0002.15,0001.68
2023-09-04 10:32:00,SystemResetWarning,0825.9,5.00,000.00,028.6,027.4,000.0,036.9,030.1,29.5,0000.0,0004.54,0002.12,0001.66
2023-09-04 10:33:00,SystemResetWarning,0825.9,4.99,000.00,028.6,026.7,000.0,036.8,030.0,28.2,0000.0,0004.51,0002.09,0001.65
2023-09-04 10:34:00,SystemResetWarning,0825.9,5.00,000.00,028.4,025.1,000.0,036.8,029.5,28.6,0000.0,0004.50,0002.10,0001.66
2023-09-04 10:35:00,SystemResetWarning,0825.9,5.00,000.00,028.3,024.4,000.0,036.7,029.4,29.2,0000.0,0004.56,0002.12,0001.67
2023-09-04 10:36:00,SystemResetWarning,0825.8,5.01,000.00,028.2,024.5,000.0,036.7,029.3,29.7,0000.0,0004.57,0002.14,0001.68
2023-09-04 10:37:00,SystemResetWarning,0825.8,5.01,000.00,028.1,024.8,000.0,036.7,029.3,29.5,0000.0,0004.44,0002.13,0001.70
2023-09-04 10:38:00,SystemResetWarning,0825.8,4.99,000.00,028.1,025.2,000.0,036.7,029.4,29.4,0000.0,0004.39,0002.15,0001.74
2023-09-04 10:39:00,SystemResetWarning,0825.7,4.99,000.00,028.1,025.5,000.0,036.7,029.4,28.8,0000.0,0004.46,0002.17,0001.76
2023-09-04 10:40:00,SystemResetWarning,0825.7,5.01,000.00,028.1,025.8,000.0,036.6,029.5,28.3,0000.0,0003.46,0002.15,0001.76
2023-09-04 10:41:00,SystemResetWarning,0825.7,5.01,000.00,028.1,026.1,000.0,036.6,029.6,28.4,0000.0,0003.39,0002.15,0001.76
2023-09-04 10:42:00,SystemResetWarning,0825.7,4.99,000.00,028.1,026.3,000.0,036.6,029.6,28.3,0000.0,0004.62,0002.15,0001.76
2023-09-04 10:43:00,SystemResetWarning,0825.6,4.99,000.00,028.1,026.5,000.0,036.6,029.6,28.2,0000.0,0004.81,0002.14,0001.75
2023-09-04 10:44:00,SystemResetWarning,0825.6,5.00,000.00,028.1,026.6,000.0,036.6,029.7,28.1,0000.0,0004.81,0002.15,0001.74
2023-09-04 10:45:00,SystemResetWarning,0825.6,5.00,000.00,028.2,026.7,000.0,036.6,029.7,28.3,0000.0,0004.85,0002.16,0001.73
2023-09-04 10:46:00,SystemResetWarning,0825.6,5.00,000.00,028.2,026.8,000.0,036.6,029.8,28.3,0000.0,0004.81,0002.19,0001.73
2023-09-04 10:47:00,SystemResetWarning,0825.5,5.00,000.00,028.2,026.9,000.0,036.6,029.8,28.5,0000.0,0004.73,0002.15,0001.71
2023-09-04 10:48:00,SystemResetWarning,0825.5,5.00,000.00,028.2,027.0,000.0,036.7,029.8,28.3,0000.0,0004.59,0002.08,0001.69
2023-09-04 10:49:00,SystemResetWarning,0825.5,5.00,000.00,028.3,027.0,000.0,036.7,029.9,28.1,0000.0,0004.53,0002.07,0001.67
2023-09-04 10:50:00,SystemResetWarning,0825.5,5.00,000.00,028.3,027.1,000.0,036.7,029.9,28.5,0000.0,0004.51,0002.06,0001.66
2023-09-04 10:51:00,SystemResetWarning,0825.5,4.99,000.00,028.3,027.1,000.0,036.7,029.9,28.3,0000.0,0004.51,0002.06,0001.67
2023-09-04 10:52:00,SystemResetWarning,0825.5,5.00,000.00,028.3,027.2,000.0,036.7,030.0,28.3,0000.0,0005.97,0002.08,0001.66
2023-09-04 10:53:00,SystemResetWarning,0825.5,5.00,000.00,028.4,027.2,000.0,036.7,030.0,28.2,0000.0,0004.74,0002.05,0001.63
2023-09-04 10:54:00,SystemResetWarning,0825.5,5.01,000.00,028.4,027.2,000.0,036.7,030.0,27.9,0000.0,0004.38,0002.03,0001.61
2023-09-04 10:55:00,SystemResetWarning,0825.6,5.00,000.00,028.4,027.3,000.0,036.7,030.1,28.3,0000.0,0004.63,0002.00,0001.59
2023-09-04 10:56:00,SystemResetWarning,0825.6,5.00,000.00,028.5,027.3,000.0,036.8,030.1,28.2,0000.0,0004.95,0001.95,0001.57
2023-09-04 10:57:00,SystemResetWarning,0825.5,5.00,000.00,028.5,027.4,000.0,036.8,030.1,27.9,0000.0,0004.92,0001.92,0001.55
2023-09-04 10:58:00,SystemResetWarning,0825.6,5.00,000.00,028.5,027.4,000.0,036.8,030.1,27.9,0000.0,0004.93,0001.92,0001.54
2023-09-04 10:59:00,SystemResetWarning,0825.5,4.99,000.00,028.5,027.4,000.0,036.8,030.2,27.8,0000.0,0005.02,0001.95,0001.54
